Regional Weather Roundup
Issued by NWS

Home | Current Version | Previous Version | Graphics & Text | Print | Product List | Glossary On
Versions: 1 2 3 4 5 6 7 8 9 10 11 12 13 14 15 16 17 18 19 20 21 22 23 24 25 26 27 28 29 30 31 32 33 34 35 36 37 38 39 40 41 42 43 44 45 46 47 48 49 50
000
ASUS45 KBOU 250007
RWRCO

WEATHER ROUNDUP FOR COLORADO
NATIONAL WEATHER SERVICE DENVER/BOULDER CO
600 PM MDT WED AUG 24 2016

NOTE: "FAIR" INDICATES FEW OR NO CLOUDS BELOW 12000 FEET WITH NO
SIGNIFICANT WEATHER AND/OR OBSTRUCTIONS TO VISIBILITY.

COZ001>005-013-030-031-250100-
...NORTHWEST COLORADO...

CITY           SKY/WX    TMP DP  RH WIND       PRES   REMARKS
CRAIG          FAIR      76  26  15 NW12      30.13S
HAYDEN         FAIR      73  27  17 N14       30.15S
MEEKER         PTSUNNY   73  34  23 S16G28    30.15S
MOUNT WERNER   NOT AVBL
STEAMBOAT SPGS FAIR      69  35  28 N3        30.17F
WALDEN         CLOUDY    54  43  66 NE15      30.32R
$$

COZ006>008-011-250100-
...WEST CENTRAL VALLEYS...

CITY           SKY/WX    TMP DP  RH WIND       PRES   REMARKS
GRAND JUNCTION PTSUNNY   81  34  18 N7        30.08R
MONTROSE       FAIR      78  31  17 W3        30.15F
EAGLE          MOSUNNY   72  30  21 SW17      30.21S
RIFLE          FAIR      75  37  25 VRB3      30.13S
DELTA          NOT AVBL
NUCLA          FAIR      77  32  19 CALM      30.19F
$$

COZ017>023-064>068-250100-
...SOUTHWEST COLORADO...

CITY           SKY/WX    TMP DP  RH WIND       PRES   REMARKS
DURANGO        FAIR      65  49  56 NW3       30.23S
CORTEZ         FAIR      70  43  37 E5        30.19R
PAGOSA SPRINGS FAIR      66  46  49 S9        30.30R THUNDER
TELLURIDE      FAIR      61  39  43 SW3       30.40S
WOLF CREEK PAS PTSUNNY   41  39  93 W9        30.56F THUNDER
$$

COZ009-010-012-014-032>034-037-058>063-250100-
...CENTRAL COLORADO...

CITY           SKY/WX    TMP DP  RH WIND       PRES   REMARKS
ASPEN          FAIR      62  36  37 W6        30.29S
BUENA VISTA    CLOUDY    58  48  70 SE6       30.32R
COPPER MTN     FAIR      48  32  53 NW9       30.53S
BERTHOUD PASS  PTSUNNY   39  28  65 NW15      30.55S THUNDER
COTTONWOOD PAS PTSUNNY   52  45  76 SE9       30.42S
GUNNISON       FAIR      66  39  37 W7        30.28S
KREMMLING      FAIR      59  43  55 SE9       30.26S
LEADVILLE      PTSUNNY   52  32  46 W9        30.40R
MONARCH PASS   TSTM      37  36  93 NE5       30.65R
SALIDA         CLOUDY    60  49  66 SE7G16    30.39R
SUNLIGHT       FAIR      55  36  47 NE7       30.50R
WILKERSON PASS FOG       41  41 100 S7        30.54S VSB<1/4
$$

COZ069>075-250100-
...SAN LUIS VALLEY/SANGRE DE CRISTO MOUNTAINS...

CITY           SKY/WX    TMP DP  RH WIND       PRES   REMARKS
ALAMOSA        FAIR      61  48  62 SE12      30.29S
LA VETA PASS   FOG       45  43  93 NE12      30.46F VSB 1/4
SAGUACHE       PTSUNNY   59  50  72 S10       30.29S
$$

COZ035-036-038>040-250100-
...NORTHERN COLORADO FRONT RANGE...

CITY           SKY/WX    TMP DP  RH WIND       PRES   REMARKS
DENVER INTL AP PTSUNNY   64  50  60 S9        30.22R
DMNS CITY PARK   N/A     64  49  58 SE2G13    30.20F
AURORA         PTSUNNY   65  47  52 S9        30.23R
FRONT RANGE AP NOT AVBL
ERIE MUNI ARPT FAIR      66  46  48 SE9       30.21R
BOULDER MUN AP CLOUDY    64  46  52 SE3G16    30.22R
CENTENNIAL     PTSUNNY   63  46  54 S10       30.24R
BROOMFIELD     NOT AVBL
FORT COLLINS   NOT AVBL
LONGMONT       LGT RAIN  67  48  50 SE3       30.25R
$$

COZ041-046-047-076>085-087-088-250100-
...PIKES PEAK/PALMER DIVIDE AND SOUTHERN FOOTHILLS...

CITY           SKY/WX    TMP DP  RH WIND       PRES   REMARKS
COLO. SPRINGS  PTSUNNY   62  50  64 NW7       30.28F
A. F. ACADEMY  FAIR      58  49  73 SW5       30.28F
SCHRIEVER AFB  NOT AVBL
ELLICOTT       NOT AVBL
FALCON         LGT RAIN  61  44  53 N5        30.31F
FORT CARSON    NOT AVBL
LIMON          FAIR      69  34  27 E16       30.21S
MONUMENT HILL  FAIR      55  45  67 SE8       30.31F
TRINIDAD       LGT RAIN  58  54  86 W8        30.28R FOG
$$

COZ042>045-048>051-090-091-250100-
...NORTHEAST COLORADO...

CITY           SKY/WX    TMP DP  RH WIND       PRES   REMARKS
GREELEY ARPT   FAIR      66  46  48 SW9       30.23R
AKRON          CLOUDY    70  35  27 SE9       30.19S
BURLINGTON     FAIR      69  37  30 E16       30.18S
WRAY           FAIR      75  36  23 SE16      30.15F
STERLING       FAIR      72  43  35 S6        30.16R
HOLYOKE        FAIR      79  39  24 SE9       30.15S
FORT MORGAN    CLOUDY    66  45  47 E3        30.19S
$$

COZ086-089-092>099-250100-
...SOUTHEAST COLORADO...

CITY           SKY/WX    TMP DP  RH WIND       PRES   REMARKS
PUEBLO         CLOUDY    70  50  49 NW8       30.20R
LA JUNTA       FAIR      75  40  28 NE18      30.15R
LAMAR          FAIR      75  48  38 NE14G21   30.10R
SPRINGFIELD      N/A     74  53  48 NE13      30.11S
$$



USA.gov is the U.S. government's official web portal to all federal, state and local government web resources and services.